Regional Weather Roundup
Issued by NWS Charleston, SC

Current Version | Previous Version | Text Only | Print | Product List | Glossary Off
Versions: 1 2 3 4 5 6 7 8 9 10 11 12 13 14 15 16 17 18 19 20 21 22 23 24 25 26 27 28 29 30 31 32 33 34 35 36 37 38 39 40 41 42 43 44 45 46 47 48 49 50
000 ASUS42 KCHS 040712 RWRCHS REGIONAL WEATHER ROUNDUP NATIONAL WEATHER SERVICE CHARLESTON SC 300 AM EDT SAT JUL 04 2015 NOTE: "FAIR" INDICATES FEW OR NO CLOUDS BELOW 12,000 FEET WITH NO SIGNIFICANT WEATHER AND/OR OBSTRUCTIONS TO VISIBILITY. NOT ALL STATIONS ARE QUALITY CONTROLLED BY THE NATIONAL WEATHER SERVICE. USE DATA WITH CAUTION...ESPECIALLY DEWPOINT OBSERVATIONS. SCZ027-030-031-034>040-042>050-040800- ...SOUTHEAST SOUTH CAROLINA... CITY SKY/WX TMP DP RH WIND PRES REMARKS N CHARLESTON PTCLDY 70 66 87 NW7 30.05R WATERFRONT PAR N/A 81 75 82 SW7 30.00R MOUNT PLEASANT LGT RAIN 75 66 73 NW13G30 30.07R JOHNS ISLAND FAIR 81 75 83 NW12 30.05R PINOPOLIS NOT AVBL MONCKS CORNER FAIR 72 68 88 SW10G16 30.04R SUMMERVILLE LGT RAIN 70 68 94 W8G21 30.05R BEAUFORT MCAS MOCLDY 80 74 81 CALM 30.02F BEAUFORT ARPT FAIR 81 73 78 CALM 30.01F HILTON HEAD IS CLOUDY 82 75 78 S6 30.03F WALTERBORO MOSUNNY 70 64 83 CALM 30.03F ALLENDALE FAIR 72 68 88 CALM 30.01S ...SOUTHERN MIDLANDS AND PEE DEE... CITY SKY/WX TMP DP RH WIND PRES REMARKS GEORGETOWN NOT AVBL KINGSTREE NOT AVBL ORANGEBURG CLOUDY 73 66 78 SW8 30.02S BARNWELL DRIZZLE 72 70 94 W9 30.03R AIKEN NOT AVBL MANNING FAIR 75 70 83 SW10G17 30.01R COLUMBIA LGT RAIN 76 70 82 SW12 29.99R SUMTER PTCLDY 74 70 86 SW8 29.97S FLORENCE CLEAR 77 70 79 SW10 29.96F MYRTLE BEACH PTCLDY 79 72 78 SW7 30.01S N MYRTLE BEACH PTCLDY 79 72 79 SW12 29.97S $$ GAZ063-065-086>088-099>101-113>116-118-119-134>141-150-040800- ...SOUTHEAST GEORGIA... CITY SKY/WX TMP DP RH WIND PRES REMARKS SAVANNAH ARPT PTCLDY 79 71 76 SW5 30.03S HUNTER AAF PTCLDY 79 74 83 SW8 30.00F FORT STEWART MOCLDY 76 72 86 S3 30.01F STATESBORO NOT AVBL SYLVANIA SUNNY 75 74 97 CALM 30.04R CLAXTON FAIR 79 73 83 CALM 30.02F ...CSRA...CENTRAL AND FAR SOUTHEAST GEORGIA... CITY SKY/WX TMP DP RH WIND PRES REMARKS THOMSON MOCLDY 71 70 98 W3 30.06F AUGUSTA-BUSH CLOUDY 72 69 90 W10 30.02R AUGUSTA-DANIEL TSTM 72 66 81 W8G28 30.03R SWAINSBORO FAIR 79 70 73 W6 30.04F VIDALIA PTCLDY 79 72 78 NW8 30.04S EASTMAN FAIR 74 69 83 CALM 30.07F HAZLEHURST FAIR 80 74 82 SW3 30.03S ALMA CLEAR 75 72 90 CALM 30.04S WAYCROSS PTCLDY 79 77 94 SW7 30.04F JESUP FAIR 77 73 88 CALM 30.04S BAXLEY FAIR 77 73 88 S3 30.03F BRUNSWICK CLEAR 79 73 83 SW7 30.05F SAINT SIMONS CLEAR 80 73 79 SW10 30.04F $$ SCZ027-028-034-036>038-045-046-048>050-GAZ119-141-040800- ...LAKE AND SUPPLEMENTAL COASTAL OBSERVATIONS... STATION/POSITION TIME TEMP WIND PRES WAVE SWELL AIR SEA DIR/SP/G HT/PER HT/PER/DIR (UTC) (F) (DEG/KT/KT) (MB) (FT/S) (FT/S/D) UPR LAKE MARION NOT AVBL WINYAH BAY NOT AVBL LAKE MURRAY 0600 78 240/ 8/ 10 1014.9F ACE BASIN NERRS NOT AVBL FORT PULASKI 0600 81 84 200/ 8/ 12 1017.3F SAPELO ISLAND 0600 80 210/ 9 1017.0S $$ ANZ835-935-AMZ111-154-330-350-352-354-370-450-454-472-040800- ...C-MAN AND BUOY OBSERVATIONS... STATION/POSITION TIME TEMP WIND PRES WAVE SWELL AIR SEA DIR/SP/G HT/PER HT/PER/DIR (UTC) (F) (DEG/KT/KT) (MB) (FT/S) (FT/S/D) BUOY 41004 0650 83 81 220/ 19/ 25 1015.8R 5/ 5 2/ 9 BUOY 41008 0650 80 79 210/ 16/ 17 1017.3S 3/ 5 2/150/ 9 FOLLY BEACH CMAN 0600 81 230/ 15/ 20 1016.6S CAPERS NEARSHORE 0608 83 240/ 19/ 27 1017.1R FRIPP NEARSHORE 0600 82 230/ 19/ 23 1016.5F STATION/POSITION TIME TEMP WIND PRES WAVE SWELL AIR SEA DIR/SP/G HT/PER HT/PER/DIR (UTC) (F) (DEG/KT/KT) (MB) (FT/S) (FT/S/D) 5E ST. MARYS GA 0621 76 N/A 2/ 9 FRYING PAN BUOY 0650 81 79 220/ 17/ 23 1015.6R 6/ 6 2/140/ 9 BUOY 41025 0650 80 81 250/ 27/ 31 1013.0R 8/ 6 2/170/15 CAPE LOOKOUT NC 0600 80 240/ 17/ 20 1014.0R BUOY 41002 0650 81 80 230/ 16/ 17 1018.5F 5/ 9 2/130/ 9 BUOY 41010 0620 83 84 180/ 10/ 12 1019.6F ST AUGUSTINE FL 0700 76 73 230/ 5/ 7 1019.1F $$

USA.gov is the U.S. government's official web portal to all federal, state and local government web resources and services.